User: anonymous   Login
Location: ????
(30.2663°N, 31.2484°E)
Time: 17:35:11
(UTC+00:00)
Language:

Cosmos 1461 - Orbit

View from above orbital plane
View from above orbital plane
View from above satellite
View from above satellite

Ground track
Ground track

The orbit data is extracted from the following two-line orbital elements,

1 14064U 83044A   23028.18952752  .00009022  00000-0  67612-3 0  9996
2 14064  65.0011  45.7859 0108283 305.4215  53.6827 14.98590262 29930
Epoch (UTC): 28 January 2023 04:32:55
Eccentricity: 0.0108283
inclination: 65.0011°
perigee height: 496 km
apogee height: 646 km
right ascension of ascending node: 45.7859°
argument of perigee: 305.4215°
revolutions per day: 14.98590262
mean anomaly at epoch: 53.6827°
orbit number at epoch: 2993

The dashed part of the orbit path shows where the satellite is in the earth's shadow,  

DLR